CAPE
24 24 18 17 15 3 2 0 0 2 0 0 0 0 0 0 0 0 0 0 0 0 0 1 1 0 0 0 0 0 0 0 0 0 0 0 0 0 0 0 0 0 0 0 0 5 0
14 27 23 18 20 8 0 9 0 0 2 0 0 0 0 0 0 0 0 0 0 0 0 1 2 0 0 0 0 0 0 0 0 0 0 0 0 0 0 0 0 0 0 14 32 47 51
34 25 30 25 18 21 17 17 8 0 0 2 0 0 0 0 0 0 0 0 0 0 0 0 1 0 0 0 0 0 0 0 0 0 0 0 0 0 0 0 0 0 0 39 51 67 79
42 23 29 25 19 23 24 13 11 1 0 0 0 0 0 0 0 0 0 0 0 0 0 0 0 0 0 0 0 0 0 0 0 0 0 0 0 0 0 0 0 4 0 51 13 49 44
47 39 39 32 21 19 22 26 18 11 1 0 1 1 0 0 0 0 0 0 0 0 0 0 0 0 0 0 0 0 0 0 0 0 0 0 0 0 0 0 0 0 0 0 7 1 2
59 47 39 34 31 24 22 25 24 18 8 0 0 1 0 0 0 0 0 0 0 0 0 0 0 0 0 0 0 0 0 0 0 0 0 0 0 0 0 0 2 1 0 0 0 0 11
82 78 53 50 34 42 29 21 23 18 8 3 0 0 0 0 0 0 0 0 0 0 0 0 0 0 0 0 0 0 0 0 0 0 0 0 0 0 0 0 0 0 0 0 0 0 0
69 86 76 57 44 45 40 32 23 22 15 10 0 0 0 0 0 0 0 0 0 0 0 0 0 0 0 0 0 0 0 0 0 0 0 0 0 0 0 1 0 0 0 0 0 0 0
43 68 85 75 57 53 52 36 27 21 20 8 0 0 1 0 0 0 0 0 0 0 0 0 0 0 0 0 0 0 0 0 0 0 0 0 0 0 0 0 0 0 0 0 0 0 0
48 48 68 87 77 58 59 52 27 29 21 6 0 0 2 0 0 0 0 0 0 0 0 0 0 0 0 0 0 0 0 0 0 0 0 0 0 0 0 0 0 0 0 0 0 0 0
34 60 72 76 78 56 54 61 34 29 32 25 0 0 4 0 0 0 0 0 0 0 0 0 0 0 0 0 0 0 0 0 0 0 0 0 0 0 0 0 0 0 0 0 0 0 0
41 54 50 52 68 66 47 61 44 27 27 29 13 0 3 0 0 0 0 0 0 0 0 0 0 0 0 0 0 0 0 0 0 0 0 0 0 0 0 0 0 0 0 0 0 0 0
34 33 40 16 48 70 59 51 47 36 27 27 21 0 2 0 0 0 0 0 1 0 0 0 0 0 0 0 0 0 0 0 0 0 0 0 0 0 0 0 0 0 0 0 0 0 0
32 28 40 30 3 86 78 57 54 58 29 27 23 1 8 0 0 0 0 50 0 0 0 0 0 0 0 0 0 0 0 0 0 0 0 0 0 0 0 0 0 0 0 0 0 0 0
60 35 35 27 16 8 93 68 55 54 40 38 33 10 28 3 0 0 18 51 0 0 0 0 0 0 0 0 0 0 0 0 0 0 0 0 0 0 0 0 0 0 0 0 0 0 0
81 57 42 39 40 13 85 78 63 61 57 47 36 19 6 4 0 0 18 5 0 0 0 0 0 0 0 0 0 0 0 0 0 0 0 0 0 0 0 0 0 0 0 0 0 0 0
84 66 42 41 39 13 93 84 81 72 59 54 27 38 0 0 0 0 7 1 2 0 0 0 0 0 0 0 0 0 0 0 0 0 0 0 0 0 0 0 0 0 0 0 0 0 0
67 63 42 46 53 13 48 91 82 65 57 49 12 12 0 5 8 1 1 14 0 0 0 0 0 0 0 0 0 0 0 0 0 0 0 0 0 0 0 0 0 0 0 0 0 0 0
30 55 47 42 44 47 97 101 66 73 87 30 19 15 14 0 9 0 1 0 0 0 0 0 0 0 0 0 0 0 0 0 0 0 0 0 0 0 1 0 0 0 0 0 0 0 0
28 30 40 42 65 44 112 55 44 44 90 11 61 13 50 60 0 2 1 3 0 0 0 0 0 0 0 0 0 0 0 0 0 0 0 0 0 0 0 0 0 6 4 0 0 0 0
37 21 29 35 80 24 115 52 65 25 81 17 43 7 2 6 20 24 7 1 10 2 0 0 0 0 0 0 0 0 0 0 0 0 0 0 0 0 0 0 0 0 0 0 0 0 0
29 26 25 35 53 55 98 82 54 5 8 20 34 33 24 1 1 13 13 6 1 1 0 0 0 0 0 0 0 0 0 0 0 0 0 0 0 0 0 0 0 0 0 0 0 0 0
48 33 29 60 64 73 73 63 57 5 8 13 0 2 12 0 1 9 1 0 0 6 0 0 0 0 0 0 0 0 0 0 0 0 0 0 0 0 2 0 0 0 0 0 0 0 0
48 38 48 73 94 94 73 53 59 41 7 46 0 8 39 0 0 0 0 4 0 0 0 0 0 0 0 0 0 0 0 0 0 0 0 0 0 0 0 0 0 0 0 0 0 0 0
41 44 83 86 117 85 56 78 90 64 51 16 0 21 63 41 14 2 0 0 2 0 0 0 0 0 0 0 0 6 5 6 0 0 0 0 0 0 0 0 0 0 0 0 0 0 0
36 83 83 96 88 80 79 76 73 108 45 0 9 27 8 28 39 25 0 0 0 0 0 0 0 0 4 0 0 0 44 0 1 0 0 0 0 0 0 0 0 0 0 0 0 0 0
84 86 73 52 36 41 17 36 103 113 102 21 70 52 48 9 16 49 37 0 0 0 0 0 0 48 0 0 0 0 0 0 0 0 0 0 0 0 0 0 0 0 0 0 0 0 0
64 39 35 50 61 37 17 41 141 61 31 8 15 39 8 9 0 29 0 8 0 0 0 0 18 10 0 4 0 0 0 0 0 0 0 0 0 0 0 0 0 0 0 0 0 0 0
68 66 59 55 31 42 86 127 135 88 87 16 31 44 20 2 11 4 0 0 0 0 0 0 0 0 0 3 0 0 0 0 0 0 0 0 0 0 0 0 0 0 0 0 0 0 0
CIN
0 0 0 0 -1 0 0 0 0 -7 0 0 0 0 0 0 0 0 0 0 0 0 0 0 0 0 0 0 0 0 0 0 0 0 0 0 0 0 0 0 0 0 0 0 0 -288 0
0 0 0 0 0 -1 0 0 0 0 -18 -2 0 0 0 0 0 0 0 0 0 0 0 0 0 0 0 0 0 0 0 0 0 0 0 0 0 0 0 0 0 0 0 -202 -248 -245 -210
0 0 0 -1 -1 0 0 0 -1 0 0 -15 0 0 0 0 0 0 0 0 0 0 0 0 0 0 0 0 0 0 0 0 0 0 0 0 0 0 0 0 0 0 0 -167 -233 -216 -108
0 0 0 -1 -1 -1 -1 -1 -1 -2 0 0 -4 0 0 0 0 0 0 0 0 0 0 0 0 0 0 0 0 0 0 0 0 0 0 0 0 0 0 0 -13 -99 0 -29 -156 -173 -159
-1 -1 0 -1 -2 -2 -2 -1 -2 -2 -1 0 -1 -19 0 0 0 0 0 0 0 0 0 0 0 0 0 0 0 0 0 0 0 0 0 0 0 0 0 0 0 0 0 0 -90 -208 -198
0 -1 -1 -1 -1 -1 -1 -1 -1 -2 -4 0 0 -5 0 0 0 0 0 0 0 0 0 0 0 0 0 0 0 0 0 0 0 0 0 0 0 0 0 0 -45 -45 0 0 0 -2 -71
0 0 -1 -1 -2 -1 0 0 -1 -1 -4 -5 0 0 0 0 0 0 0 0 0 0 0 0 0 0 0 0 0 0 0 0 0 0 0 0 0 0 -1 0 0 0 0 0 0 0 0
0 0 0 -1 -1 0 -1 0 -1 -2 -2 -3 0 0 -1 0 0 0 0 0 0 0 0 0 0 0 0 0 0 0 0 0 0 0 0 0 0 0 0 -76 -30 0 0 0 0 0 0
0 0 0 0 -1 0 0 -1 -2 -2 -2 -3 0 0 -1 0 0 0 0 0 0 0 0 0 0 0 0 0 0 0 0 0 0 0 0 0 0 0 0 0 0 0 0 0 0 0 0
0 0 0 0 0 -1 0 0 -3 -2 -3 -3 0 0 -14 0 0 0 0 0 0 0 0 0 0 0 0 0 0 0 0 0 0 0 0 0 0 0 0 0 0 0 0 0 0 0 0
0 0 0 0 0 -2 -2 -1 -3 -4 -4 -4 0 -18 -19 0 0 0 0 0 0 0 0 0 0 0 0 0 0 0 0 0 0 0 0 0 0 0 0 0 0 0 0 0 0 0 0
0 0 -1 -1 0 -1 -5 -2 -2 -7 -7 -6 -4 -6 -17 0 0 0 0 0 0 0 0 0 0 0 0 0 0 0 0 0 0 0 0 0 0 0 0 0 0 0 0 0 0 0 0
0 0 -4 -6 -1 -1 0 -6 -1 -5 -7 -8 -5 -13 -1 0 0 0 0 0 0 0 0 0 0 0 0 0 0 0 0 0 0 0 0 0 0 0 0 0 0 0 0 0 0 0 0
0 0 0 -13 -51 0 -1 -1 -6 -2 -7 -12 -6 -14 -13 -1 0 0 0 -2 -1 0 0 0 0 0 0 0 0 0 0 0 0 0 0 0 0 0 0 0 0 0 0 0 0 0 0
0 0 0 -1 -12 -2 0 -3 -8 -2 -4 -11 -9 -2 0 -3 0 0 -6 0 0 0 0 0 0 0 0 0 0 0 0 0 0 0 0 0 0 0 0 -42 0 0 0 0 0 0 -7
0 0 0 0 -10 -37 0 -2 -2 -9 -3 -10 -1 -1 -1 -6 0 0 0 -1 0 0 0 0 0 0 0 0 0 0 0 0 0 0 0 0 0 0 0 0 0 0 0 0 0 0 0
0 0 0 0 -1 -29 -1 -1 -6 -5 -4 -5 -3 0 -4 -1 0 0 -1 -1 -2 0 0 0 0 0 0 0 0 0 0 0 0 0 0 0 0 0 0 0 0 0 0 0 0 0 0
0 0 0 0 0 0 -1 -1 -6 -3 -5 -2 -6 0 0 -22 -15 -13 -2 -1 0 0 0 0 0 0 0 0 0 0 0 0 0 0 0 0 0 0 0 0 0 0 0 0 0 0 0
0 0 0 0 0 -2 0 0 -9 -10 -2 -2 -1 -3 -1 0 -1 -1 -1 0 0 0 0 0 0 0 0 0 0 0 0 0 0 0 0 0 0 0 -44 0 0 0 0 0 0 0 0
0 0 0 0 0 -1 0 0 -3 -43 -1 -8 -11 -12 -2 -1 -1 -2 -1 -5 0 0 0 0 0 0 0 0 0 0 0 0 0 0 0 0 0 0 0 0 0 -56 -33 0 0 0 0
0 0 0 0 0 -6 0 -13 -7 -65 -2 -13 -28 -5 0 -3 0 -1 -4 0 -1 0 0 0 0 0 0 0 0 0 0 0 0 0 0 0 0 0 0 0 0 0 0 0 0 0 0
0 0 0 0 0 -2 -1 -6 -9 -83 -35 -20 -14 -12 -22 -17 -2 0 -5 -2 0 -1 0 0 0 0 0 0 0 0 0 0 0 0 0 0 0 0 0 0 0 0 0 0 0 0 0
0 0 0 0 0 0 -1 -5 -17 -83 -50 -3 -2 -20 -17 0 -2 -1 -1 0 0 -3 0 0 0 0 0 0 0 0 0 0 0 0 0 0 0 0 -38 0 0 0 0 0 0 0 0
-3 0 0 0 0 0 -1 -24 -25 -27 -18 -12 0 -40 -6 0 0 0 0 -1 -2 0 0 0 0 0 0 0 0 0 0 0 0 0 0 0 0 0 0 0 0 0 0 0 0 0 0
0 0 0 0 0 -1 -6 -1 -17 -53 -10 -1 0 -29 0 -2 -2 0 0 0 -1 0 0 0 0 0 0 0 0 -63 -142 -109 0 0 0 0 0 0 0 0 0 0 0 0 0 0 0
0 0 0 0 0 0 -2 -1 -10 -23 -40 0 -1 -32 -13 -10 -7 -3 -1 0 0 0 0 0 0 0 -154 0 0 -15 -28 -24 -62 0 0 0 0 0 0 0 0 0 0 0 0 0 0
0 0 0 0 0 -2 0 -3 -1 -5 -13 -2 0 -13 -21 0 -53 -32 -7 0 0 0 0 0 0 -22 0 0 0 0 0 0 0 0 0 0 0 0 0 0 0 0 0 0 0 0 0
0 -2 0 0 0 -5 -15 -5 0 -2 -16 -4 -1 -19 -26 0 0 -63 0 -6 0 0 0 0 -6 -2 0 -33 0 0 0 0 0 0 0 0 0 0 0 0 0 0 0 0 0 0 0
0 0 0 0 -2 -1 0 0 0 -1 0 -1 0 -7 -10 0 -1 0 0 0 0 0 0 0 0 0 -1 -77 0 0 0 0 0 0 0 0 0 0 0 0 0 0 0 0 0 0 0
Wind_Speed
16 17 14 12 10 11 13 11 10 10 11 10 10 10 9 10 10 10 10 10 10 11 12 12 11 14 5 3 11 4 4 9 6 7 4 4 3 2 3 5 4 3 5 6 4 9 7
18 16 16 13 13 12 15 13 10 10 10 10 10 10 10 10 10 11 10 10 11 10 10 10 9 10 2 5 4 1 5 6 3 2 3 4 5 4 3 4 1 4 4 4 5 6 6
20 18 17 16 14 14 12 11 11 10 11 11 11 10 10 10 10 10 10 11 11 9 9 8 5 3 1 17 2 7 5 3 5 4 3 5 4 3 2 6 3 4 4 3 2 4 6
21 20 18 18 15 14 13 12 11 10 10 10 12 10 10 10 10 10 10 12 12 9 8 5 2 1 9 4 3 8 2 6 7 6 5 4 5 4 3 3 7 4 3 3 4 4 2
21 21 20 19 17 15 14 12 11 10 11 10 11 10 9 10 9 9 10 13 14 10 4 2 1 1 12 6 3 9 9 4 3 3 4 3 2 1 6 3 5 5 2 2 2 7 3
24 22 21 20 19 17 15 13 12 10 11 11 10 12 9 10 9 7 10 13 6 1 2 4 3 3 6 3 4 4 5 5 3 3 2 3 5 3 4 5 2 4 3 1 3 4 4
25 24 23 22 21 19 17 16 13 11 10 10 11 11 10 10 9 6 6 4 3 1 2 9 5 5 4 7 5 2 3 6 3 5 3 2 3 3 6 5 6 3 5 4 3 4 3
29 25 25 23 22 21 20 18 15 12 10 10 10 10 11 10 6 1 1 2 4 2 9 12 17 11 11 4 5 5 6 5 5 6 2 4 3 6 5 2 4 0 4 6 6 6 5
27 29 26 25 23 21 20 20 17 13 12 11 10 10 11 8 2 0 2 6 2 3 4 8 7 7 6 10 8 7 6 5 5 6 6 6 5 2 4 4 1 1 3 5 6 5 2
28 26 29 26 24 23 20 21 19 16 14 12 11 11 8 6 1 3 4 3 7 6 2 8 6 8 7 8 5 9 6 6 2 10 6 5 2 3 2 2 4 3 3 8 3 2 4
30 28 27 29 26 25 21 20 19 18 15 13 12 10 8 11 0 3 2 5 2 2 3 4 4 2 7 11 3 6 6 3 7 6 6 9 5 5 4 5 4 7 3 3 3 2 2
33 30 28 28 28 25 23 20 17 17 15 12 11 10 8 5 0 6 8 6 2 5 9 4 7 7 6 3 2 1 6 3 5 6 3 5 1 2 5 1 4 2 1 4 4 2 2
35 32 30 29 27 28 25 21 17 18 16 13 11 10 9 6 3 3 3 1 3 5 4 4 6 6 5 6 3 1 5 6 7 5 3 2 1 3 2 3 3 6 6 4 6 5 6
36 35 32 30 30 30 27 24 19 16 17 14 11 7 7 4 2 3 1 3 9 7 6 5 3 5 8 6 5 5 5 5 3 4 4 6 4 4 1 4 5 2 5 6 4 2 5
37 36 34 31 30 26 30 27 23 18 17 15 9 2 4 6 4 3 1 12 9 7 5 4 3 5 4 4 6 5 8 7 9 8 8 5 4 3 3 1 4 1 0 3 7 3 4
39 37 36 32 30 28 30 28 25 22 19 17 5 4 8 8 10 3 5 18 7 5 4 4 8 6 8 8 7 7 8 5 6 9 7 7 2 2 4 3 6 4 6 1 3 3 3
40 38 36 34 31 33 30 30 28 26 21 20 5 4 6 12 8 4 14 12 11 13 5 3 2 2 7 8 9 6 9 4 7 6 5 6 5 3 1 6 7 3 0 1 4 5 5
40 38 37 34 32 34 31 31 28 27 25 19 5 6 9 12 8 6 15 7 6 16 1 4 3 5 4 7 7 9 9 8 8 11 10 7 7 5 10 2 2 2 5 6 6 4 1
41 39 37 35 33 32 30 34 32 26 29 10 8 5 9 12 15 13 8 17 7 6 6 7 4 1 4 2 4 7 8 4 7 9 11 8 1 3 7 6 4 4 5 4 5 4 6
42 40 38 35 33 32 33 34 32 30 28 9 5 7 6 11 12 20 20 13 23 14 11 4 3 3 2 3 6 6 7 4 7 8 5 9 5 9 9 10 5 5 5 6 7 4 4
41 40 37 35 33 31 36 35 35 31 30 11 5 8 8 14 22 17 20 13 17 16 11 7 5 9 2 3 3 4 2 3 2 5 5 6 6 5 6 4 5 4 3 7 6 5 7
42 39 37 35 34 34 35 33 35 33 25 10 8 4 4 2 17 28 18 22 25 22 8 11 15 3 10 10 7 3 4 4 6 2 6 1 3 3 2 3 2 4 7 6 6 4 6
40 39 37 35 36 39 34 32 31 34 28 4 5 2 2 8 17 20 30 20 20 17 14 15 15 16 10 14 8 10 8 3 6 11 7 6 7 5 5 2 3 6 9 8 6 4 6
39 38 36 36 38 39 35 32 27 31 31 2 6 2 3 5 15 23 20 23 19 20 20 13 20 9 6 3 1 4 6 8 7 5 4 8 7 3 3 3 2 7 4 5 5 2 4
37 36 36 37 38 36 35 31 28 31 33 10 4 1 2 3 9 11 14 21 15 15 19 20 16 9 4 2 2 4 6 5 3 6 5 3 7 4 6 4 5 1 4 8 7 3 2
35 33 37 37 35 33 32 29 29 25 30 14 7 2 1 3 8 7 19 15 16 13 10 18 7 5 4 3 4 8 6 6 4 3 5 7 7 7 4 6 8 10 5 5 5 2 6
31 35 36 34 31 29 28 26 26 26 28 14 3 1 2 3 3 7 12 8 11 14 6 3 10 6 2 4 2 4 5 5 8 10 6 4 4 6 3 3 8 8 5 5 7 11 9
31 31 31 30 30 29 28 26 28 28 22 17 3 4 2 1 5 5 6 4 10 13 10 4 5 2 3 5 4 5 4 6 4 6 9 9 8 4 4 4 7 5 4 9 8 3 6
27 26 25 25 25 25 26 28 29 25 26 21 4 6 4 1 3 5 8 13 7 2 6 4 3 6 7 4 2 3 2 2 4 4 1 3 8 9 9 8 2 3 4 1 3 10 5
Wind_Direction
268 274 274 270 270 278 281 277 275 250 242 244 250 261 266 275 285 289 298 303 308 314 318 324 329 329 348 349 252 307 52 101 127 135 175 149 141 171 307 285 290 201 279 323 177 143 140
269 266 269 268 265 265 276 277 274 277 251 241 247 253 263 270 281 289 299 302 305 312 314 322 333 326 341 288 262 162 108 112 146 159 177 180 190 188 256 256 202 265 293 196 123 164 155
267 264 265 263 263 266 265 271 272 277 279 249 237 246 256 265 276 287 297 297 298 304 308 315 330 330 284 239 11 329 315 233 179 167 230 214 167 146 242 291 312 298 46 34 335 208 166
266 264 257 259 256 257 260 266 267 271 277 271 247 237 248 257 270 284 293 293 290 289 295 294 4 335 250 243 289 292 204 276 227 200 226 273 202 196 202 298 348 9 57 104 243 175 79
261 264 261 255 254 251 251 256 260 261 268 275 265 240 249 258 263 280 293 292 287 276 244 198 86 109 265 297 227 251 177 201 171 226 277 302 12 70 18 51 356 9 269 186 163 227 75
255 255 258 258 256 248 245 249 256 257 267 272 272 257 245 260 267 290 302 290 292 14 171 180 252 336 274 332 304 269 188 160 225 54 81 40 45 59 37 66 270 292 350 330 132 198 170
251 253 251 254 253 253 244 245 247 253 258 270 269 269 256 253 266 310 348 355 346 273 222 205 196 252 276 300 284 256 152 112 113 57 164 27 73 192 229 182 215 261 267 277 321 282 181
251 243 246 247 249 247 246 246 241 238 246 258 273 269 257 246 256 291 72 275 243 235 301 229 243 248 258 67 302 294 129 138 142 201 169 29 239 231 192 282 354 41 335 319 299 295 193
261 249 238 240 243 245 247 240 239 232 240 243 261 268 254 235 117 143 194 231 277 348 277 280 206 212 207 151 209 255 160 143 137 136 201 167 244 146 261 118 345 339 212 255 241 328 26
253 255 246 234 235 240 243 239 236 236 230 235 244 262 244 155 35 167 237 260 288 164 330 268 223 250 170 152 240 206 210 140 149 192 156 233 277 139 228 199 176 334 269 273 293 45 221
245 246 253 234 229 230 233 238 229 227 227 225 231 246 220 176 41 217 139 321 176 58 314 236 188 134 166 158 175 233 179 87 165 173 130 242 165 191 229 234 128 231 282 304 229 217 13
243 238 240 253 231 223 219 229 228 221 220 218 226 234 208 214 172 247 312 314 91 55 249 287 148 160 140 193 243 111 154 100 151 117 235 222 269 162 223 229 178 263 164 61 56 95 24
236 239 235 233 246 218 218 214 223 222 213 209 220 232 180 163 205 309 286 85 137 189 316 224 182 159 164 165 212 132 135 157 157 109 191 50 269 289 205 118 349 66 52 349 354 12 224
228 232 233 231 225 228 211 212 207 214 211 204 215 211 227 204 93 11 257 164 215 218 237 304 169 112 173 147 224 172 149 192 236 120 128 144 324 192 264 163 169 155 143 160 224 210 281
223 224 227 226 224 236 209 201 201 204 211 201 172 240 230 199 181 63 236 210 196 216 217 232 74 128 227 200 160 137 188 195 191 171 150 140 249 331 270 248 136 153 347 189 102 17 55
218 218 222 222 221 216 220 200 197 194 203 190 163 212 231 154 157 116 232 216 201 229 347 1 197 171 176 197 157 149 179 209 216 182 150 206 147 192 298 32 288 164 160 94 0 156 230
213 213 215 217 216 208 224 199 193 190 192 180 136 213 190 145 143 148 221 213 215 260 314 324 316 254 215 175 175 172 191 241 206 170 128 137 120 256 164 200 209 157 221 91 127 136 163
207 207 209 211 211 204 224 186 186 191 187 181 168 210 171 146 180 187 217 191 238 239 44 304 324 243 238 183 186 186 202 205 185 151 157 198 136 172 210 213 163 204 179 133 121 234 178
200 202 204 204 203 203 205 179 177 186 186 161 179 221 180 166 200 205 208 210 248 217 193 218 245 323 1 228 187 193 198 222 152 153 159 180 185 88 346 4 15 230 207 168 120 82 202
194 195 197 199 197 196 199 177 181 174 198 173 186 187 170 197 227 196 192 196 212 233 260 318 297 299 260 282 230 210 206 194 170 199 115 112 143 156 184 206 173 192 201 174 142 125 194
191 187 191 192 192 187 188 178 186 175 195 188 199 222 190 188 207 208 190 195 201 213 199 197 269 231 201 313 300 169 149 136 355 170 114 133 164 159 218 190 187 214 214 165 172 202 160
182 180 185 187 186 177 183 183 184 174 193 198 178 190 168 231 190 202 191 206 203 206 213 207 231 230 215 218 229 295 155 186 188 194 137 200 181 119 87 7 202 198 220 200 207 195 260
178 175 180 181 183 171 180 188 183 179 186 151 211 254 244 192 179 190 212 196 201 194 222 244 213 226 239 236 238 245 224 260 203 155 162 134 131 104 222 4 15 329 223 212 220 195 176
168 172 177 179 177 168 178 189 185 186 187 154 203 127 239 203 187 202 190 203 198 208 212 202 235 217 235 87 63 358 50 72 57 43 120 135 108 86 159 47 317 246 309 213 152 299 242
165 170 174 173 168 171 178 189 189 193 184 208 231 169 283 214 188 188 197 192 199 208 225 226 250 263 195 203 324 300 347 33 20 21 46 101 115 100 135 188 290 332 214 161 153 236 300
164 165 171 167 164 170 177 185 194 190 187 190 249 287 34 313 202 172 182 183 191 203 225 232 232 236 94 105 126 185 198 173 184 70 42 65 59 115 145 148 208 230 230 156 121 256 200
139 155 155 156 163 172 176 185 189 187 182 176 198 215 121 301 307 195 184 173 178 199 231 160 177 181 104 120 167 179 232 183 158 162 170 67 27 156 128 189 285 244 217 148 146 235 165
145 149 155 164 171 175 180 186 185 187 180 172 262 143 109 175 279 9 354 174 181 202 194 183 114 225 83 154 142 216 138 222 122 172 173 158 146 182 83 80 275 180 111 167 208 63 124
150 157 163 169 173 179 183 188 184 168 181 166 235 129 105 209 317 342 271 245 206 226 170 215 202 165 181 123 171 117 139 59 149 211 120 191 183 176 174 206 253 286 239 122 155 134 147